TimeMST,TemperatureF,Dew PointF,Humidity,Sea Level PressureIn,VisibilityMPH,Wind Direction,Wind SpeedMPH,Gust SpeedMPH,PrecipitationIn,Events,Conditions,WindDirDegrees,DateUTC
12:06 AM,28.4,26.6,93,29.70,1.2,North,8.1,-,0.00,Snow,Light Snow,360,2013-02-09 07:06:00
12:27 AM,26.6,26.6,100,29.69,0.8,North,10.4,-,0.01,Snow,Light Snow,360,2013-02-09 07:27:00
12:36 AM,26.6,26.6,100,29.70,1.2,North,6.9,-,0.01,Snow,Light Snow,350,2013-02-09 07:36:00
12:47 AM,26.6,24.8,93,29.69,2.5,North,5.8,-,0.01,Snow,Light Snow,350,2013-02-09 07:47:00
12:50 AM,26.6,26.6,100,29.69,3.0,NNW,5.8,-,0.01,Snow,Light Snow,340,2013-02-09 07:50:00
12:53 AM,27.0,25.0,92,29.58,4.0,NNW,6.9,-,0.01,Snow,Light Snow,340,2013-02-09 07:53:00
1:02 AM,26.6,24.8,93,29.69,2.5,NNW,5.8,-,0.00,Snow,Light Snow,330,2013-02-09 08:02:00
1:29 AM,26.6,24.8,93,29.68,3.0,NW,4.6,-,0.01,Snow,Light Snow,320,2013-02-09 08:29:00
1:37 AM,26.6,24.8,93,29.68,6.0,NW,6.9,-,0.01,Snow,Light Snow,320,2013-02-09 08:37:00
1:53 AM,26.1,24.1,92,29.56,10.0,NW,6.9,-,0.01,Snow,Light Snow,310,2013-02-09 08:53:00
2:03 AM,26.6,24.8,93,29.67,2.5,NW,6.9,-,0.00,Snow,Light Snow,320,2013-02-09 09:03:00
2:14 AM,26.6,24.8,93,29.66,1.2,Calm,Calm,-,0.00,Snow,Light Snow,0,2013-02-09 09:14:00
2:25 AM,26.6,24.8,93,29.65,1.8,Calm,Calm,-,0.00,Snow,Light Snow,0,2013-02-09 09:25:00
2:29 AM,26.6,24.8,93,29.65,3.0,Calm,Calm,-,0.00,Snow,Light Snow,0,2013-02-09 09:29:00
2:38 AM,24.8,21.2,86,29.64,8.0,Calm,Calm,-,0.00,Snow,Light Snow,0,2013-02-09 09:38:00
2:53 AM,26.1,24.1,92,29.54,8.0,Calm,Calm,-,0.00,Snow,Light Snow,0,2013-02-09 09:53:00
3:02 AM,26.6,24.8,93,29.64,3.0,Calm,Calm,-,0.00,Snow,Light Snow,0,2013-02-09 10:02:00
3:04 AM,26.6,24.8,93,29.64,2.5,Calm,Calm,-,0.00,Snow,Light Snow,0,2013-02-09 10:04:00
3:14 AM,26.6,24.8,93,29.63,1.5,Calm,Calm,-,0.01,Snow,Light Snow,0,2013-02-09 10:14:00
3:27 AM,26.6,24.8,93,29.62,2.5,Calm,Calm,-,0.01,Snow,Light Snow,0,2013-02-09 10:27:00
3:31 AM,26.6,23.0,86,29.62,4.0,Calm,Calm,-,0.01,Snow,Light Snow,0,2013-02-09 10:31:00
3:53 AM,26.1,24.1,92,29.52,7.0,Calm,Calm,-,0.01,Snow,Light Snow,0,2013-02-09 10:53:00
4:09 AM,26.6,24.8,93,29.62,2.5,Calm,Calm,-,0.00,Snow,Light Snow,0,2013-02-09 11:09:00
4:16 AM,26.6,23.0,86,29.62,1.2,Calm,Calm,-,0.00,Snow,Light Snow,0,2013-02-09 11:16:00
4:30 AM,26.6,23.0,86,29.62,3.0,Calm,Calm,-,0.00,Snow,Light Snow,0,2013-02-09 11:30:00
4:42 AM,24.8,24.8,100,29.61,2.0,North,3.5,-,0.01,Snow,Light Snow,350,2013-02-09 11:42:00
4:53 AM,25.0,23.0,92,29.51,3.0,Calm,Calm,-,0.01,Snow,Light Snow,0,2013-02-09 11:53:00
5:34 AM,24.8,23.0,93,29.59,8.0,North,4.6,-,0.00,,Overcast,350,2013-02-09 12:34:00
5:53 AM,25.0,23.0,92,29.49,8.0,NNE,3.5,-,0.00,,Overcast,20,2013-02-09 12:53:00
6:11 AM,24.8,23.0,93,29.57,2.0,Calm,Calm,-,0.00,Snow,Light Snow,0,2013-02-09 13:11:00
6:18 AM,24.8,23.0,93,29.57,1.5,Calm,Calm,-,0.00,Snow,Light Snow,0,2013-02-09 13:18:00
6:29 AM,24.8,23.0,93,29.56,2.5,Calm,Calm,-,0.00,Snow,Light Snow,0,2013-02-09 13:29:00
6:35 AM,24.8,23.0,93,29.56,4.0,Calm,Calm,-,0.00,Snow,Light Snow,0,2013-02-09 13:35:00
6:53 AM,25.0,23.0,92,29.45,6.0,North,3.5,-,0.00,,Overcast,360,2013-02-09 13:53:00
7:00 AM,24.8,21.2,86,29.56,6.0,North,3.5,-,N/A,,Overcast,350,2013-02-09 14:00:00
7:47 AM,24.8,21.2,86,29.57,1.8,NE,6.9,-,0.00,Snow,Light Snow,50,2013-02-09 14:47:00
7:53 AM,25.0,21.9,88,29.50,0.5,NNE,9.2,-,0.00,Fog-Snow,Light Snow,30,2013-02-09 14:53:00
8:00 AM,24.8,21.2,86,29.58,0.2,North,12.7,-,0.00,Fog-Snow,Snow,360,2013-02-09 15:00:00
8:13 AM,23.0,21.2,93,29.57,0.2,North,13.8,-,0.01,Fog-Snow,Heavy Snow,10,2013-02-09 15:13:00
8:53 AM,21.9,19.9,92,29.51,0.2,North,12.7,-,0.03,Fog-Snow,Heavy Snow,10,2013-02-09 15:53:00
9:13 AM,21.2,19.4,93,29.58,0.2,North,11.5,-,0.01,Fog-Snow,Heavy Snow,360,2013-02-09 16:13:00
9:53 AM,21.9,19.9,92,29.52,7.0,NNE,5.8,-,0.02,Snow,Light Snow,30,2013-02-09 16:53:00
10:28 AM,23.0,19.4,86,29.57,7.0,Calm,Calm,-,0.01,Snow,Light Snow,0,2013-02-09 17:28:00
10:53 AM,25.0,19.0,78,29.52,10.0,Calm,Calm,-,0.01,,Overcast,0,2013-02-09 17:53:00
11:53 AM,25.0,18.0,75,29.51,10.0,South,3.5,-,N/A,,Overcast,190,2013-02-09 18:53:00
12:53 PM,27.0,12.9,56,29.48,10.0,Calm,Calm,-,N/A,,Mostly Cloudy,0,2013-02-09 19:53:00
1:53 PM,28.9,14.0,54,29.45,10.0,North,4.6,-,N/A,,Mostly Cloudy,10,2013-02-09 20:53:00
2:53 PM,24.1,18.0,77,29.48,6.0,NNW,15.0,25.3,0.00,Snow,Snow,330,2013-02-09 21:53:00
3:46 PM,23.0,17.6,80,29.52,2.0,NNE,5.8,-,0.00,Snow,Snow,30,2013-02-09 22:46:00
3:53 PM,21.9,18.0,85,29.51,5.0,NE,4.6,-,0.00,Snow,Snow,50,2013-02-09 22:53:00
4:53 PM,23.0,18.0,81,29.51,8.0,Calm,Calm,-,0.00,,Overcast,0,2013-02-09 23:53:00
5:53 PM,21.9,16.0,78,29.52,8.0,NNW,3.5,-,N/A,,Overcast,340,2013-02-10 00:53:00
5:55 PM,21.2,15.8,80,29.53,10.0,Calm,Calm,-,N/A,,Overcast,0,2013-02-10 00:55:00
6:53 PM,21.9,16.0,78,29.54,9.0,North,4.6,-,0.00,Snow,Light Snow,350,2013-02-10 01:53:00
7:53 PM,19.9,15.1,81,29.56,10.0,North,8.1,-,0.00,,Overcast,10,2013-02-10 02:53:00
8:53 PM,19.0,14.0,81,29.61,10.0,North,3.5,-,N/A,,Overcast,360,2013-02-10 03:53:00
9:53 PM,15.1,10.0,80,29.65,10.0,Calm,Calm,-,N/A,,Scattered Clouds,0,2013-02-10 04:53:00
10:53 PM,10.9,6.1,81,29.68,10.0,SSW,3.5,-,N/A,,Overcast,210,2013-02-10 05:53:00
11:53 PM,10.9,5.0,77,29.71,10.0,South,5.8,-,N/A,,Clear,180,2013-02-10 06:53:00